CZ-6A DEB, 60779

Orbit data source: Space-Track

CZ-6A DEB, 60779 is space debris in LEO originally from a launch on Tue, 06 Aug 2024 UTC launched from the Taiyaun Space Center, China (TSC). Debris objects in space refer to the collection of defunct objects orbiting the Earth. Examples of debris include non-operational satellites, rocket bodies, and fragments generated from explosions, collisions, or faulty payload assembly.

Loading next visibility...
Identifier
60779, 2024-140FE
Orbit
LEO
Country
Flag of CNCN / PRC
Related business
Manufacturer
SAST
Mission
Spacecraft
Bus & Motor
Unknown
Mass
Unknown
Launch date (UTC)
2024-08-06 (2 years ago)
Launch vehicle
Unknown
Launch site
Taiyaun Space Center, China (TSC)
Object type
Payload
Rocket body
Debris
Shape & HBR
Unknown shape, 0.3 m
Radar Cross Section
Medium (>0.1 m² and <1 m²)

Expand to show TLE details & history
Last TLE update: 16 hours ago

TLE from 16 hours ago
0 CZ-6A DEB
1 60779U 24140FE  26171.18836387  .00017380  00000-0  22034-2 0  9993
2 60779  88.9705 265.7553 0079662 201.3624 158.4269 14.79404286 98972
Epoch: 2026-06-20T04:31Z
TLE epoch observation values (Epoch: 2026-06-20T04:31:14.638Z)
Latitude
-0.00002°
Longitude
-70.46226°
Altitude
686.34 km
Speed
7.485 km/s
True Right ascension
17h 43m 01s
True Declination
0° 00' 00"
Sunlit
Object was in full shadow at epoch
Visualization orbit readout
Latitude
Unknown
Longitude
Unknown
Altitude
Unknown
Speed
Unknown
Apparent Right ascension
Unknown
Apparent Declination
Unknown
Sunlit
N/A
Visualization observer readout
Local Sidereal Time
07:19:34
Azimuth
Unknown
Elevation
Unknown
Doppler factor
Unknown
Orbital elements
Apogee altitude
683.884 km
Perigee altitude
572.259 km
Semi-major axis
7,006.209 km
Eccentricity
0.00797
Inclination
88.9705°
RAAN
265.7553°
Arg. of periapsis
201.3624°
True anomaly
158.75946°
Mean anomaly
158.4269°
Eccentric anomaly
158.59349°
Mean motion
3.701 °/min
Orbital period
97.27 mins
BSTAR
0.0022034
Loading maneuver chart data...
Computing Atmospheric mass density...
Loading historical data...
Loading historical data...
Loading historical data...
Loading historical data...
Loading historical data...
Loading historical data...
Loading historical data...

Documentation

Showing up to 5 results
|